Weather History for Hoquiam, WA

Change the Weather History Date:

Thursday, September 26, 2013

  Actual Average Record
Temperature  
Mean Temperature 53 °F 57 °F  
Max Temperature 63 °F 65 °F 83 °F (1967)
Min Temperature 42 °F 49 °F 36 °F (1972)
Degree Days  
Heating Degree Days 12 8  
Month to date heating degree days 110 155  
Cooling Degree Days 0 0  
Month to date cooling degree days 7 0  
Year to date cooling degree days 20 16  
Growing Degree Days 2 (Base 50)    
Moisture  
Dew Point 46 °F    
Average Humidity 83    
Maximum Humidity 100    
Minimum Humidity 65    
Precipitation  
Precipitation 0.00 in 0.10 in 1.31 in (2011)
Month to date precipitation 3.42 1.88  
Year to date precipitation 37.76 39.49  
Sea Level Pressure  
Sea Level Pressure 30.09 in    
Wind  
Wind Speed 5 mph (ENE)    
Max Wind Speed 12 mph    
Max Gust Speed 13 mph    
Visibility 6 miles    
Events Fog    
T = Trace of Precipitation, MM = Missing Value Source: NWS Daily Summary

Daily Weather History Graph

Daily Weather History Graph

Search for Another Location

Airport:

Trip Planner

Search our weather history database for the weather conditions in past years. The results will help you decide how hot, cold, wet, or windy it might be!

Date:

Astronomy

Sep. 26, 2013 Rise Set
Actual Time 7:08 AM PDT 7:04 PM PDT
Civil Twilight 6:37 AM PDT 7:34 PM PDT
Nautical Twilight 6:02 AM PDT 8:10 PM PDT
Astronomical Twilight 5:26 AM PDT 8:46 PM PDT
Moon 11:49 PM PDT (9/26) 2:23 PM PDT (9/26)
Length of Visible Light 12h 56m
Length of Day
11h 56m
Waning Gibbous, 53% of the Moon is Illuminated
Sep 26
Waning Gibbous
Sep 26
Last Quarter
Oct 4
New
Oct 11
First Quarter
Oct 18
Full

Hourly Weather History & Observations

Time (PDT) Temp. Windchill Dew Point Humidity Pressure Visibility Wind Dir Wind Speed Gust Speed Precip Events Conditions
12:53 AM 50.0 °F - 48.0 °F 93% 30.04 in 10.0 mi Calm Calm - N/A   Clear
1:53 AM 50.0 °F - 48.9 °F 96% 30.05 in 10.0 mi Calm Calm - N/A   Clear
2:53 AM 44.1 °F 41.5 °F 43.0 °F 96% 30.06 in 10.0 mi ENE 4.6 mph - N/A   Clear
3:53 AM 45.0 °F - 44.1 °F 97% 30.07 in 10.0 mi Calm Calm - 0.01 in   Partly Cloudy
4:06 AM 44.6 °F 43.1 °F 42.8 °F 93% 30.06 in 10.0 mi NNE 3.5 mph - N/A   Mostly Cloudy
4:29 AM 44.6 °F 42.2 °F 42.8 °F 93% 30.06 in 8.0 mi ENE 4.6 mph - N/A   Partly Cloudy
4:53 AM 44.1 °F 41.5 °F 42.1 °F 93% 30.07 in 8.0 mi NE 4.6 mph - N/A   Clear
5:34 AM 42.8 °F 39.3 °F 42.8 °F 100% 30.06 in 4.0 mi NE 5.8 mph - N/A   Partly Cloudy
5:41 AM 42.8 °F 39.3 °F 42.8 °F 100% 30.06 in 1.8 mi NE 5.8 mph - N/A   Scattered Clouds
5:49 AM 42.8 °F 40.1 °F 42.8 °F 100% 30.06 in 1.0 mi ENE 4.6 mph - N/A   Mist
5:53 AM 43.0 °F 40.3 °F 42.1 °F 97% 30.07 in 1.0 mi ENE 4.6 mph - N/A   Mist
6:01 AM 42.8 °F 40.1 °F 42.8 °F 100% 30.06 in 3.0 mi ENE 4.6 mph - N/A   Overcast
6:21 AM 42.8 °F 39.3 °F 42.8 °F 100% 30.06 in 8.0 mi NE 5.8 mph - N/A   Scattered Clouds
6:42 AM 44.6 °F 43.1 °F 42.8 °F 93% 30.06 in 5.0 mi NE 3.5 mph - N/A   Mostly Cloudy
6:53 AM 44.1 °F 42.5 °F 43.0 °F 96% 30.08 in 2.0 mi ENE 3.5 mph - N/A   Overcast
7:00 AM 44.6 °F 42.2 °F 42.8 °F 93% 30.07 in 1.0 mi NE 4.6 mph - N/A   Overcast
7:13 AM 42.8 °F 41.1 °F 42.8 °F 100% 30.07 in 0.2 mi ENE 3.5 mph - N/A Fog Fog
7:39 AM 44.6 °F 42.2 °F 42.8 °F 93% 30.07 in 0.2 mi NE 4.6 mph - N/A Fog Fog
7:53 AM 44.1 °F 41.5 °F 44.1 °F 100% 30.09 in 0.2 mi ENE 4.6 mph - N/A Fog Fog
7:58 AM 44.6 °F 41.4 °F 44.6 °F 100% 30.08 in 0.8 mi NE 5.8 mph - N/A   Mist
8:01 AM 44.6 °F 42.2 °F 44.6 °F 100% 30.08 in 2.5 mi NE 4.6 mph - N/A   Overcast
8:03 AM 44.6 °F 42.2 °F 44.6 °F 100% 30.08 in 4.0 mi NE 4.6 mph - N/A   Overcast
8:15 AM 44.6 °F 43.1 °F 44.6 °F 100% 30.08 in 2.0 mi ENE 3.5 mph - N/A   Mostly Cloudy
8:34 AM 46.4 °F 43.5 °F 44.6 °F 93% 30.09 in 3.0 mi NE 5.8 mph - N/A   Mostly Cloudy
8:43 AM 46.4 °F 44.3 °F 44.6 °F 93% 30.09 in 2.0 mi ENE 4.6 mph - N/A   Overcast
8:53 AM 46.0 °F 43.1 °F 46.0 °F 100% 30.11 in 3.0 mi NE 5.8 mph - N/A   Overcast
9:53 AM 48.9 °F - 46.9 °F 93% 30.12 in 8.0 mi NE 8.1 mph - N/A   Overcast
10:43 AM 53.6 °F - 51.8 °F 94% 30.11 in 10.0 mi NE 6.9 mph - N/A   Partly Cloudy
10:53 AM 55.0 °F - 51.1 °F 86% 30.12 in 10.0 mi NE 5.8 mph - N/A   Partly Cloudy
11:53 AM 57.9 °F - 51.1 °F 78% 30.12 in 10.0 mi ENE 4.6 mph - N/A   Clear
12:53 PM 60.1 °F - 53.1 °F 78% 30.13 in 10.0 mi ESE 6.9 mph - N/A   Clear
1:53 PM 62.1 °F - 53.1 °F 72% 30.13 in 10.0 mi SSW 8.1 mph - N/A   Clear
2:53 PM 61.0 °F - 52.0 °F 72% 30.12 in 10.0 mi SSW 8.1 mph - N/A   Clear
3:53 PM 62.1 °F - 52.0 °F 70% 30.12 in 10.0 mi SW 9.2 mph - N/A   Clear
4:53 PM 62.1 °F - 50.0 °F 65% 30.12 in 10.0 mi WSW 10.4 mph - N/A   Clear
5:53 PM 60.1 °F - 50.0 °F 69% 30.12 in 10.0 mi SW 9.2 mph - N/A   Clear
6:53 PM 57.0 °F - 50.0 °F 77% 30.13 in 10.0 mi SW 8.1 mph - N/A   Clear
7:53 PM 57.0 °F - 48.9 °F 74% 30.14 in 10.0 mi WSW 4.6 mph - N/A   Clear
8:53 PM 53.1 °F - 48.9 °F 86% 30.15 in 10.0 mi Calm Calm - N/A   Clear
9:53 PM 51.1 °F - 48.0 °F 89% 30.16 in 10.0 mi Calm Calm - N/A   Clear
10:32 PM 51.8 °F - 48.2 °F 88% 30.15 in 9.0 mi Calm Calm - N/A   Mostly Cloudy
10:53 PM 48.9 °F - 46.9 °F 93% 30.16 in 7.0 mi ENE 4.6 mph - N/A   Scattered Clouds
11:53 PM 48.9 °F - 48.0 °F 97% 30.15 in 4.0 mi ENE 3.5 mph - N/A   Clear